Location: Rio Negrinho
(26.2394°S, 49.4999°W)
Time: 22:12:36
(UTC+00:00)

Hubble Space Telescope - Pass Details

Date: 07 June 2020
Orbit: 536 x 540 km, 28.5° (Epoch: 10 July)

Event Time Altitude Azimuth Distance (km) Brightness Sun altitude
Exits shadow 08:22:08 60° 315° (NW) 619 0.8 -21.5°
Maximum altitude 08:22:28 63° 343° (NNW) 603 0.9 -21.5°
Drops below altitude 10° 08:26:34 10° 64° (ENE) 1,786 4.6 -20.6°
Sets 08:28:50 0° 67° (ENE) 2,674 5.9 -20.1°
